Year,Month,Day,Hour,Minute,Value (Times are PST for insolation in W/m^2)
2011,06,19,00,00,0.00
2011,06,19,00,01,0.00
2011,06,19,00,02,0.00
2011,06,19,00,03,0.00
2011,06,19,00,04,0.00
2011,06,19,00,05,0.00
2011,06,19,00,06,0.00
2011,06,19,00,07,0.00
2011,06,19,00,08,0.00
2011,06,19,00,09,0.00
2011,06,19,00,10,0.00
2011,06,19,00,11,0.00
2011,06,19,00,12,0.00
2011,06,19,00,13,0.00
2011,06,19,00,14,0.00
2011,06,19,00,15,0.00
2011,06,19,00,16,0.00
2011,06,19,00,17,0.00
2011,06,19,00,18,0.00
2011,06,19,00,19,0.00
2011,06,19,00,20,0.00
2011,06,19,00,21,0.00
2011,06,19,00,22,0.00
2011,06,19,00,23,0.00
2011,06,19,00,24,0.00
2011,06,19,00,25,0.00
2011,06,19,00,26,0.00
2011,06,19,00,27,0.00
2011,06,19,00,28,0.00
2011,06,19,00,29,0.00
2011,06,19,00,30,0.00
2011,06,19,00,31,0.00
2011,06,19,00,32,0.00
2011,06,19,00,33,0.00
2011,06,19,00,34,0.00
2011,06,19,00,35,0.00
2011,06,19,00,36,0.00
2011,06,19,00,37,0.00
2011,06,19,00,38,0.00
2011,06,19,00,39,0.00
2011,06,19,00,40,0.00
2011,06,19,00,41,0.00
2011,06,19,00,42,0.00
2011,06,19,00,43,0.00
2011,06,19,00,44,0.00
2011,06,19,00,45,0.00
2011,06,19,00,46,0.00
2011,06,19,00,47,0.00
2011,06,19,00,48,0.00
2011,06,19,00,49,0.00
2011,06,19,00,50,0.00
2011,06,19,00,51,0.00
2011,06,19,00,52,0.00
2011,06,19,00,53,0.00
2011,06,19,00,54,0.00
2011,06,19,00,55,0.00
2011,06,19,00,56,0.00
2011,06,19,00,57,0.00
2011,06,19,00,58,0.00
2011,06,19,00,59,0.00
2011,06,19,01,00,0.00
2011,06,19,01,01,0.00
2011,06,19,01,02,0.00
2011,06,19,01,03,0.00
2011,06,19,01,04,0.00
2011,06,19,01,05,0.00
2011,06,19,01,06,0.00
2011,06,19,01,07,0.00
2011,06,19,01,08,0.00
2011,06,19,01,09,0.00
2011,06,19,01,10,0.00
2011,06,19,01,11,0.00
2011,06,19,01,12,0.00
2011,06,19,01,13,0.00
2011,06,19,01,14,0.00
2011,06,19,01,15,0.00
2011,06,19,01,16,0.00
2011,06,19,01,17,0.00
2011,06,19,01,18,0.00
2011,06,19,01,19,0.00
2011,06,19,01,20,0.00
2011,06,19,01,21,0.00
2011,06,19,01,22,0.00
2011,06,19,01,23,0.00
2011,06,19,01,24,0.00
2011,06,19,01,25,0.00
2011,06,19,01,26,0.00
2011,06,19,01,27,0.00
2011,06,19,01,28,0.00
2011,06,19,01,29,0.00
2011,06,19,01,30,0.00
2011,06,19,01,31,0.00
2011,06,19,01,32,0.00
2011,06,19,01,33,0.00
2011,06,19,01,34,0.00
2011,06,19,01,35,0.00
2011,06,19,01,36,0.00
2011,06,19,01,37,0.00
2011,06,19,01,38,0.00
2011,06,19,01,39,0.00
2011,06,19,01,40,0.00
2011,06,19,01,41,0.00
2011,06,19,01,42,0.00
2011,06,19,01,43,0.00
2011,06,19,01,44,0.00
2011,06,19,01,45,0.00
2011,06,19,01,46,0.00
2011,06,19,01,47,0.00
2011,06,19,01,48,0.00
2011,06,19,01,49,0.00
2011,06,19,01,50,0.00
2011,06,19,01,51,0.00
2011,06,19,01,52,0.00
2011,06,19,01,53,0.00
2011,06,19,01,54,0.00
2011,06,19,01,55,0.00
2011,06,19,01,56,0.00
2011,06,19,01,57,0.00
2011,06,19,01,58,0.00
2011,06,19,01,59,0.00
2011,06,19,02,00,0.00
2011,06,19,02,01,0.00
2011,06,19,02,02,0.00
2011,06,19,02,03,0.00
2011,06,19,02,04,0.00
2011,06,19,02,05,0.00
2011,06,19,02,06,0.00
2011,06,19,02,07,0.00
2011,06,19,02,08,0.00
2011,06,19,02,09,0.00
2011,06,19,02,10,0.00
2011,06,19,02,11,0.00
2011,06,19,02,12,0.00
2011,06,19,02,13,0.00
2011,06,19,02,14,0.00
2011,06,19,02,15,0.00
2011,06,19,02,16,0.00
2011,06,19,02,17,0.00
2011,06,19,02,18,0.00
2011,06,19,02,19,0.00
2011,06,19,02,20,0.00
2011,06,19,02,21,0.00
2011,06,19,02,22,0.00
2011,06,19,02,23,0.00
2011,06,19,02,24,0.00
2011,06,19,02,25,0.00
2011,06,19,02,26,0.00
2011,06,19,02,27,0.00
2011,06,19,02,28,0.00
2011,06,19,02,29,0.00
2011,06,19,02,30,0.00
2011,06,19,02,31,0.00
2011,06,19,02,32,0.00
2011,06,19,02,33,0.00
2011,06,19,02,34,0.00
2011,06,19,02,35,0.00
2011,06,19,02,36,0.00
2011,06,19,02,37,0.00
2011,06,19,02,38,0.00
2011,06,19,02,39,0.00
2011,06,19,02,40,0.00
2011,06,19,02,41,0.00
2011,06,19,02,42,0.00
2011,06,19,02,43,0.00
2011,06,19,02,44,0.00
2011,06,19,02,45,0.00
2011,06,19,02,46,0.00
2011,06,19,02,47,0.00
2011,06,19,02,48,0.00
2011,06,19,02,49,0.00
2011,06,19,02,50,0.00
2011,06,19,02,51,0.00
2011,06,19,02,52,0.00
2011,06,19,02,53,0.00
2011,06,19,02,54,0.00
2011,06,19,02,55,0.00
2011,06,19,02,56,0.00
2011,06,19,02,57,0.00
2011,06,19,02,58,0.00
2011,06,19,02,59,0.00
2011,06,19,03,00,0.00
2011,06,19,03,01,0.00
2011,06,19,03,02,0.00
2011,06,19,03,03,0.00
2011,06,19,03,04,0.00
2011,06,19,03,05,0.00
2011,06,19,03,06,0.00
2011,06,19,03,07,0.00
2011,06,19,03,08,0.00
2011,06,19,03,09,0.00
2011,06,19,03,10,0.00
2011,06,19,03,11,0.00
2011,06,19,03,12,0.00
2011,06,19,03,13,0.00
2011,06,19,03,14,0.00
2011,06,19,03,15,0.00
2011,06,19,03,16,0.00
2011,06,19,03,17,0.00
2011,06,19,03,18,0.00
2011,06,19,03,19,0.00
2011,06,19,03,20,0.00
2011,06,19,03,21,0.00
2011,06,19,03,22,0.00
2011,06,19,03,23,0.00
2011,06,19,03,24,0.00
2011,06,19,03,25,0.00
2011,06,19,03,26,0.00
2011,06,19,03,27,0.00
2011,06,19,03,28,0.00
2011,06,19,03,29,0.00
2011,06,19,03,30,0.00
2011,06,19,03,31,0.00
2011,06,19,03,32,0.00
2011,06,19,03,33,0.00
2011,06,19,03,34,0.00
2011,06,19,03,35,0.00
2011,06,19,03,36,0.00
2011,06,19,03,37,0.00
2011,06,19,03,38,0.00
2011,06,19,03,39,0.00
2011,06,19,03,40,0.00
2011,06,19,03,41,0.00
2011,06,19,03,42,0.00
2011,06,19,03,43,0.00
2011,06,19,03,44,0.00
2011,06,19,03,45,0.00
2011,06,19,03,46,0.00
2011,06,19,03,47,0.00
2011,06,19,03,48,0.00
2011,06,19,03,49,0.00
2011,06,19,03,50,0.00
2011,06,19,03,51,0.00
2011,06,19,03,52,0.00
2011,06,19,03,53,0.00
2011,06,19,03,54,0.00
2011,06,19,03,55,0.00
2011,06,19,03,56,0.00
2011,06,19,03,57,0.00
2011,06,19,03,58,0.00
2011,06,19,03,59,0.00
2011,06,19,04,00,0.00
2011,06,19,04,01,0.00
2011,06,19,04,02,0.00
2011,06,19,04,03,0.00
2011,06,19,04,04,0.00
2011,06,19,04,05,0.00
2011,06,19,04,06,0.00
2011,06,19,04,07,0.00
2011,06,19,04,08,0.00
2011,06,19,04,09,0.00
2011,06,19,04,10,0.00
2011,06,19,04,11,0.00
2011,06,19,04,12,0.00
2011,06,19,04,13,0.00
2011,06,19,04,14,0.00
2011,06,19,04,15,0.00
2011,06,19,04,16,0.00
2011,06,19,04,17,0.00
2011,06,19,04,18,0.00
2011,06,19,04,19,0.00
2011,06,19,04,20,0.00
2011,06,19,04,21,0.00
2011,06,19,04,22,0.00
2011,06,19,04,23,0.00
2011,06,19,04,24,0.00
2011,06,19,04,25,0.00
2011,06,19,04,26,0.00
2011,06,19,04,27,0.00
2011,06,19,04,28,0.00
2011,06,19,04,29,0.00
2011,06,19,04,30,0.00
2011,06,19,04,31,0.00
2011,06,19,04,32,0.00
2011,06,19,04,33,0.00
2011,06,19,04,34,0.00
2011,06,19,04,35,0.00
2011,06,19,04,36,0.00
2011,06,19,04,37,0.00
2011,06,19,04,38,0.00
2011,06,19,04,39,0.00
2011,06,19,04,40,0.00
2011,06,19,04,41,0.00
2011,06,19,04,42,0.00
2011,06,19,04,43,0.00
2011,06,19,04,44,0.00
2011,06,19,04,45,0.00
2011,06,19,04,46,0.00
2011,06,19,04,47,0.00
2011,06,19,04,48,0.00
2011,06,19,04,49,0.00
2011,06,19,04,50,0.00
2011,06,19,04,51,0.00
2011,06,19,04,52,0.00
2011,06,19,04,53,0.00
2011,06,19,04,54,0.00
2011,06,19,04,55,0.00
2011,06,19,04,56,0.00
2011,06,19,04,57,0.00
2011,06,19,04,58,0.00
2011,06,19,04,59,0.00
2011,06,19,05,00,0.00
2011,06,19,05,01,0.00
2011,06,19,05,02,0.00
2011,06,19,05,03,0.00
2011,06,19,05,04,0.00
2011,06,19,05,05,0.00
2011,06,19,05,06,0.00
2011,06,19,05,07,0.00
2011,06,19,05,08,0.00
2011,06,19,05,09,0.00
2011,06,19,05,10,0.00
2011,06,19,05,11,0.00
2011,06,19,05,12,0.00
2011,06,19,05,13,0.00
2011,06,19,05,14,0.00
2011,06,19,05,15,0.00
2011,06,19,05,16,0.00
2011,06,19,05,17,0.00
2011,06,19,05,18,0.00
2011,06,19,05,19,0.00
2011,06,19,05,20,0.00
2011,06,19,05,21,0.00
2011,06,19,05,22,0.00
2011,06,19,05,23,0.00
2011,06,19,05,24,0.00
2011,06,19,05,25,0.00
2011,06,19,05,26,0.00
2011,06,19,05,27,0.00
2011,06,19,05,28,0.00
2011,06,19,05,29,0.00
2011,06,19,05,30,0.00
2011,06,19,05,31,0.00
2011,06,19,05,32,0.00
2011,06,19,05,33,0.00
2011,06,19,05,34,0.00
2011,06,19,05,35,0.00
2011,06,19,05,36,0.00
2011,06,19,05,37,0.00
2011,06,19,05,38,0.00
2011,06,19,05,39,0.00
2011,06,19,05,40,0.00
2011,06,19,05,41,0.00
2011,06,19,05,42,0.00
2011,06,19,05,43,0.00
2011,06,19,05,44,0.00
2011,06,19,05,45,0.00
2011,06,19,05,46,0.00
2011,06,19,05,47,0.00
2011,06,19,05,48,3.10
2011,06,19,05,49,1.60
2011,06,19,05,50,3.80
2011,06,19,05,51,5.00
2011,06,19,05,52,5.00
2011,06,19,05,53,5.00
2011,06,19,05,54,5.00
2011,06,19,05,55,5.00
2011,06,19,05,56,5.00
2011,06,19,05,57,5.00
2011,06,19,05,58,5.70
2011,06,19,05,59,7.00
2011,06,19,06,00,7.00
2011,06,19,06,01,7.00
2011,06,19,06,02,7.00
2011,06,19,06,03,7.00
2011,06,19,06,04,7.00
2011,06,19,06,05,7.00
2011,06,19,06,06,8.60
2011,06,19,06,07,9.00
2011,06,19,06,08,9.00
2011,06,19,06,09,11.00
2011,06,19,06,10,11.00
2011,06,19,06,11,11.00
2011,06,19,06,12,11.00
2011,06,19,06,13,11.00
2011,06,19,06,14,11.00
2011,06,19,06,15,11.50
2011,06,19,06,16,12.00
2011,06,19,06,17,12.00
2011,06,19,06,18,12.00
2011,06,19,06,19,12.00
2011,06,19,06,20,12.00
2011,06,19,06,21,12.00
2011,06,19,06,22,13.80
2011,06,19,06,23,14.00
2011,06,19,06,24,14.20
2011,06,19,06,25,16.00
2011,06,19,06,26,16.00
2011,06,19,06,27,16.00
2011,06,19,06,28,16.00
2011,06,19,06,29,16.80
2011,06,19,06,30,18.00
2011,06,19,06,31,18.50
2011,06,19,06,32,19.00
2011,06,19,06,33,19.00
2011,06,19,06,34,18.30
2011,06,19,06,35,18.00
2011,06,19,06,36,18.00
2011,06,19,06,37,18.00
2011,06,19,06,38,18.00
2011,06,19,06,39,18.00
2011,06,19,06,40,18.00
2011,06,19,06,41,18.20
2011,06,19,06,42,19.00
2011,06,19,06,43,19.00
2011,06,19,06,44,19.80
2011,06,19,06,45,21.00
2011,06,19,06,46,22.00
2011,06,19,06,47,24.10
2011,06,19,06,48,25.00
2011,06,19,06,49,25.70
2011,06,19,06,50,26.00
2011,06,19,06,51,26.00
2011,06,19,06,52,26.00
2011,06,19,06,53,26.00
2011,06,19,06,54,26.00
2011,06,19,06,55,26.30
2011,06,19,06,56,28.00
2011,06,19,06,57,28.50
2011,06,19,06,58,30.00
2011,06,19,06,59,30.80
2011,06,19,07,00,32.50
2011,06,19,07,01,33.00
2011,06,19,07,02,34.10
2011,06,19,07,03,33.70
2011,06,19,07,04,33.00
2011,06,19,07,05,33.00
2011,06,19,07,06,34.60
2011,06,19,07,07,35.00
2011,06,19,07,08,35.00
2011,06,19,07,09,35.00
2011,06,19,07,10,35.30
2011,06,19,07,11,37.00
2011,06,19,07,12,37.00
2011,06,19,07,13,37.00
2011,06,19,07,14,37.00
2011,06,19,07,15,37.00
2011,06,19,07,16,37.00
2011,06,19,07,17,37.00
2011,06,19,07,18,38.30
2011,06,19,07,19,41.10
2011,06,19,07,20,42.00
2011,06,19,07,21,43.60
2011,06,19,07,22,45.80
2011,06,19,07,23,46.00
2011,06,19,07,24,47.20
2011,06,19,07,25,49.30
2011,06,19,07,26,50.60
2011,06,19,07,27,49.00
2011,06,19,07,28,49.00
2011,06,19,07,29,48.20
2011,06,19,07,30,47.00
2011,06,19,07,31,46.50
2011,06,19,07,32,46.00
2011,06,19,07,33,46.00
2011,06,19,07,34,46.70
2011,06,19,07,35,48.50
2011,06,19,07,36,50.60
2011,06,19,07,37,51.00
2011,06,19,07,38,49.10
2011,06,19,07,39,49.00
2011,06,19,07,40,49.30
2011,06,19,07,41,51.40
2011,06,19,07,42,53.80
2011,06,19,07,43,56.70
2011,06,19,07,44,58.00
2011,06,19,07,45,61.20
2011,06,19,07,46,66.00
2011,06,19,07,47,68.10
2011,06,19,07,48,70.90
2011,06,19,07,49,73.40
2011,06,19,07,50,72.50
2011,06,19,07,51,70.40
2011,06,19,07,52,67.30
2011,06,19,07,53,63.20
2011,06,19,07,54,57.80
2011,06,19,07,55,56.00
2011,06,19,07,56,55.60
2011,06,19,07,57,53.70
2011,06,19,07,58,52.30
2011,06,19,07,59,51.80
2011,06,19,08,00,53.50
2011,06,19,08,01,57.10
2011,06,19,08,02,61.70
2011,06,19,08,03,65.50
2011,06,19,08,04,69.10
2011,06,19,08,05,74.60
2011,06,19,08,06,81.70
2011,06,19,08,07,85.70
2011,06,19,08,08,84.10
2011,06,19,08,09,81.00
2011,06,19,08,10,81.40
2011,06,19,08,11,85.10
2011,06,19,08,12,91.40
2011,06,19,08,13,97.30
2011,06,19,08,14,103.10
2011,06,19,08,15,104.50
2011,06,19,08,16,104.00
2011,06,19,08,17,104.00
2011,06,19,08,18,104.00
2011,06,19,08,19,102.60
2011,06,19,08,20,99.00
2011,06,19,08,21,92.30
2011,06,19,08,22,84.70
2011,06,19,08,23,77.30
2011,06,19,08,24,69.70
2011,06,19,08,25,66.70
2011,06,19,08,26,64.60
2011,06,19,08,27,62.20
2011,06,19,08,28,58.70
2011,06,19,08,29,54.10
2011,06,19,08,30,49.20
2011,06,19,08,31,46.50
2011,06,19,08,32,46.00
2011,06,19,08,33,46.00
2011,06,19,08,34,48.10
2011,06,19,08,35,50.50
2011,06,19,08,36,53.60
2011,06,19,08,37,59.40
2011,06,19,08,38,67.00
2011,06,19,08,39,74.70
2011,06,19,08,40,81.40
2011,06,19,08,41,83.30
2011,06,19,08,42,79.90
2011,06,19,08,43,76.70
2011,06,19,08,44,75.20
2011,06,19,08,45,73.10
2011,06,19,08,46,72.00
2011,06,19,08,47,72.00
2011,06,19,08,48,70.70
2011,06,19,08,49,70.00
2011,06,19,08,50,73.00
2011,06,19,08,51,75.60
2011,06,19,08,52,76.90
2011,06,19,08,53,77.00
2011,06,19,08,54,79.40
2011,06,19,08,55,83.70
2011,06,19,08,56,89.30
2011,06,19,08,57,94.50
2011,06,19,08,58,92.00
2011,06,19,08,59,87.70
2011,06,19,09,00,80.80
2011,06,19,09,01,72.80
2011,06,19,09,02,65.50
2011,06,19,09,03,62.30
2011,06,19,09,04,62.70
2011,06,19,09,05,66.10
2011,06,19,09,06,68.70
2011,06,19,09,07,69.90
2011,06,19,09,08,70.00
2011,06,19,09,09,70.00
2011,06,19,09,10,70.90
2011,06,19,09,11,77.00
2011,06,19,09,12,81.80
2011,06,19,09,13,84.70
2011,06,19,09,14,84.90
2011,06,19,09,15,81.20
2011,06,19,09,16,78.00
2011,06,19,09,17,75.30
2011,06,19,09,18,72.70
2011,06,19,09,19,74.90
2011,06,19,09,20,79.80
2011,06,19,09,21,83.50
2011,06,19,09,22,87.60
2011,06,19,09,23,93.00
2011,06,19,09,24,98.00
2011,06,19,09,25,98.00
2011,06,19,09,26,98.00
2011,06,19,09,27,98.00
2011,06,19,09,28,98.70
2011,06,19,09,29,100.00
2011,06,19,09,30,99.00
2011,06,19,09,31,96.40
2011,06,19,09,32,92.60
2011,06,19,09,33,92.30
2011,06,19,09,34,93.00
2011,06,19,09,35,93.00
2011,06,19,09,36,96.40
2011,06,19,09,37,101.50
2011,06,19,09,38,104.90
2011,06,19,09,39,109.40
2011,06,19,09,40,113.10
2011,06,19,09,41,114.90
2011,06,19,09,42,118.00
2011,06,19,09,43,118.00
2011,06,19,09,44,118.00
2011,06,19,09,45,117.00
2011,06,19,09,46,117.00
2011,06,19,09,47,119.10
2011,06,19,09,48,120.60
2011,06,19,09,49,125.30
2011,06,19,09,50,129.30
2011,06,19,09,51,130.00
2011,06,19,09,52,127.30
2011,06,19,09,53,118.40
2011,06,19,09,54,108.40
2011,06,19,09,55,101.40
2011,06,19,09,56,98.00
2011,06,19,09,57,98.60
2011,06,19,09,58,101.30
2011,06,19,09,59,106.00
2011,06,19,10,00,113.30
2011,06,19,10,01,123.50
2011,06,19,10,02,135.70
2011,06,19,10,03,146.30
2011,06,19,10,04,151.90
2011,06,19,10,05,149.10
2011,06,19,10,06,142.90
2011,06,19,10,07,139.30
2011,06,19,10,08,135.10
2011,06,19,10,09,134.10
2011,06,19,10,10,135.90
2011,06,19,10,11,141.20
2011,06,19,10,12,141.10
2011,06,19,10,13,139.00
2011,06,19,10,14,139.00
2011,06,19,10,15,140.40
2011,06,19,10,16,145.10
2011,06,19,10,17,152.70
2011,06,19,10,18,163.30
2011,06,19,10,19,173.40
2011,06,19,10,20,183.00
2011,06,19,10,21,191.00
2011,06,19,10,22,194.70
2011,06,19,10,23,197.00
2011,06,19,10,24,200.20
2011,06,19,10,25,202.00
2011,06,19,10,26,202.00
2011,06,19,10,27,202.00
2011,06,19,10,28,203.70
2011,06,19,10,29,209.90
2011,06,19,10,30,216.90
2011,06,19,10,31,220.50
2011,06,19,10,32,221.00
2011,06,19,10,33,223.70
2011,06,19,10,34,227.90
2011,06,19,10,35,231.30
2011,06,19,10,36,238.00
2011,06,19,10,37,245.30
2011,06,19,10,38,252.90
2011,06,19,10,39,258.90
2011,06,19,10,40,268.30
2011,06,19,10,41,277.60
2011,06,19,10,42,286.40
2011,06,19,10,43,303.30
2011,06,19,10,44,330.20
2011,06,19,10,45,353.10
2011,06,19,10,46,366.70
2011,06,19,10,47,385.80
2011,06,19,10,48,418.00
2011,06,19,10,49,432.60
2011,06,19,10,50,427.00
2011,06,19,10,51,414.70
2011,06,19,10,52,394.00
2011,06,19,10,53,360.30
2011,06,19,10,54,332.00
2011,06,19,10,55,311.30
2011,06,19,10,56,300.10
2011,06,19,10,57,296.40
2011,06,19,10,58,293.30
2011,06,19,10,59,286.30
2011,06,19,11,00,277.70
2011,06,19,11,01,275.00
2011,06,19,11,02,284.30
2011,06,19,11,03,312.00
2011,06,19,11,04,344.40
2011,06,19,11,05,374.60
2011,06,19,11,06,404.10
2011,06,19,11,07,433.30
2011,06,19,11,08,463.70
2011,06,19,11,09,485.50
2011,06,19,11,10,489.10
2011,06,19,11,11,482.60
2011,06,19,11,12,469.90
2011,06,19,11,13,447.50
2011,06,19,11,14,419.00
2011,06,19,11,15,395.90
2011,06,19,11,16,385.40
2011,06,19,11,17,378.90
2011,06,19,11,18,370.00
2011,06,19,11,19,361.30
2011,06,19,11,20,353.60
2011,06,19,11,21,352.00
2011,06,19,11,22,352.90
2011,06,19,11,23,352.70
2011,06,19,11,24,344.50
2011,06,19,11,25,327.00
2011,06,19,11,26,304.70
2011,06,19,11,27,285.40
2011,06,19,11,28,270.00
2011,06,19,11,29,258.30
2011,06,19,11,30,249.70
2011,06,19,11,31,242.30
2011,06,19,11,32,233.70
2011,06,19,11,33,224.00
2011,06,19,11,34,215.90
2011,06,19,11,35,210.00
2011,06,19,11,36,203.00
2011,06,19,11,37,197.50
2011,06,19,11,38,193.30
2011,06,19,11,39,195.20
2011,06,19,11,40,197.40
2011,06,19,11,41,201.40
2011,06,19,11,42,206.30
2011,06,19,11,43,206.70
2011,06,19,11,44,203.50
2011,06,19,11,45,196.70
2011,06,19,11,46,189.30
2011,06,19,11,47,186.00
2011,06,19,11,48,186.00
2011,06,19,11,49,185.30
2011,06,19,11,50,181.80
2011,06,19,11,51,182.70
2011,06,19,11,52,183.00
2011,06,19,11,53,181.30
2011,06,19,11,54,186.00
2011,06,19,11,55,197.90
2011,06,19,11,56,215.30
2011,06,19,11,57,231.30
2011,06,19,11,58,235.20
2011,06,19,11,59,227.30
2011,06,19,12,00,215.30
2011,06,19,12,01,203.80
2011,06,19,12,02,196.60
2011,06,19,12,03,195.00
2011,06,19,12,04,196.40
2011,06,19,12,05,199.30
2011,06,19,12,06,201.70
2011,06,19,12,07,205.60
2011,06,19,12,08,213.00
2011,06,19,12,09,221.90
2011,06,19,12,10,230.60
2011,06,19,12,11,235.10
2011,06,19,12,12,242.10
2011,06,19,12,13,257.60
2011,06,19,12,14,282.10
2011,06,19,12,15,309.40
2011,06,19,12,16,333.90
2011,06,19,12,17,349.20
2011,06,19,12,18,357.00
2011,06,19,12,19,364.10
2011,06,19,12,20,366.80
2011,06,19,12,21,364.40
2011,06,19,12,22,355.80
2011,06,19,12,23,345.80
2011,06,19,12,24,341.00
2011,06,19,12,25,340.10
2011,06,19,12,26,334.30
2011,06,19,12,27,326.40
2011,06,19,12,28,317.50
2011,06,19,12,29,313.00
2011,06,19,12,30,316.30
2011,06,19,12,31,325.50
2011,06,19,12,32,339.90
2011,06,19,12,33,355.30
2011,06,19,12,34,362.90
2011,06,19,12,35,358.30
2011,06,19,12,36,353.60
2011,06,19,12,37,363.00
2011,06,19,12,38,385.90
2011,06,19,12,39,405.30
2011,06,19,12,40,433.70
2011,06,19,12,41,476.60
2011,06,19,12,42,535.60
2011,06,19,12,43,596.20
2011,06,19,12,44,614.60
2011,06,19,12,45,587.90
2011,06,19,12,46,553.30
2011,06,19,12,47,543.50
2011,06,19,12,48,562.30
2011,06,19,12,49,590.60
2011,06,19,12,50,611.80
2011,06,19,12,51,621.00
2011,06,19,12,52,621.10
2011,06,19,12,53,621.40
2011,06,19,12,54,631.90
2011,06,19,12,55,666.10
2011,06,19,12,56,702.00
2011,06,19,12,57,709.00
2011,06,19,12,58,684.50
2011,06,19,12,59,662.00
2011,06,19,13,00,651.60
2011,06,19,13,01,649.50
2011,06,19,13,02,649.40
2011,06,19,13,03,657.00
2011,06,19,13,04,693.00
2011,06,19,13,05,676.70
2011,06,19,13,06,658.90
2011,06,19,13,07,637.90
2011,06,19,13,08,620.60
2011,06,19,13,09,613.20
2011,06,19,13,10,616.30
2011,06,19,13,11,629.10
2011,06,19,13,12,654.00
2011,06,19,13,13,655.70
2011,06,19,13,14,644.00
2011,06,19,13,15,630.30
2011,06,19,13,16,620.20
2011,06,19,13,17,610.20
2011,06,19,13,18,602.70
2011,06,19,13,19,597.40
2011,06,19,13,20,592.80
2011,06,19,13,21,577.40
2011,06,19,13,22,550.50
2011,06,19,13,23,528.60
2011,06,19,13,24,519.70
2011,06,19,13,25,517.40
2011,06,19,13,26,520.90
2011,06,19,13,27,531.60
2011,06,19,13,28,553.20
2011,06,19,13,29,583.90
2011,06,19,13,30,611.00
2011,06,19,13,31,635.60
2011,06,19,13,32,635.90
2011,06,19,13,33,621.00
2011,06,19,13,34,609.00
2011,06,19,13,35,596.30
2011,06,19,13,36,567.40
2011,06,19,13,37,543.00
2011,06,19,13,38,533.60
2011,06,19,13,39,547.00
2011,06,19,13,40,568.20
2011,06,19,13,41,581.30
2011,06,19,13,42,597.10
2011,06,19,13,43,614.60
2011,06,19,13,44,646.90
2011,06,19,13,45,695.20
2011,06,19,13,46,713.60
2011,06,19,13,47,690.20
2011,06,19,13,48,637.70
2011,06,19,13,49,621.20
2011,06,19,13,50,619.60
2011,06,19,13,51,627.60
2011,06,19,13,52,639.50
2011,06,19,13,53,660.70
2011,06,19,13,54,610.80
2011,06,19,13,55,569.20
2011,06,19,13,56,553.90
2011,06,19,13,57,529.00
2011,06,19,13,58,524.00
2011,06,19,13,59,525.30
2011,06,19,14,00,517.00
2011,06,19,14,01,498.40
2011,06,19,14,02,487.70
2011,06,19,14,03,483.00
2011,06,19,14,04,482.70
2011,06,19,14,05,484.60
2011,06,19,14,06,488.40
2011,06,19,14,07,496.20
2011,06,19,14,08,512.90
2011,06,19,14,09,533.30
2011,06,19,14,10,558.60
2011,06,19,14,11,579.00
2011,06,19,14,12,592.00
2011,06,19,14,13,592.00
2011,06,19,14,14,613.40
2011,06,19,14,15,625.80
2011,06,19,14,16,620.50
2011,06,19,14,17,605.00
2011,06,19,14,18,598.30
2011,06,19,14,19,637.20
2011,06,19,14,20,701.80
2011,06,19,14,21,714.00
2011,06,19,14,22,714.00
2011,06,19,14,23,714.00
2011,06,19,14,24,783.80
2011,06,19,14,25,1447.00
2011,06,19,14,26,1319.40
2011,06,19,14,27,895.30
2011,06,19,14,28,860.00
2011,06,19,14,29,885.90
2011,06,19,14,30,922.40
2011,06,19,14,31,935.00
2011,06,19,14,32,817.40
2011,06,19,14,33,766.30
2011,06,19,14,34,783.90
2011,06,19,14,35,818.40
2011,06,19,14,36,764.30
2011,06,19,14,37,817.60
2011,06,19,14,38,795.80
2011,06,19,14,39,851.00
2011,06,19,14,40,834.10
2011,06,19,14,41,754.70
2011,06,19,14,42,744.00
2011,06,19,14,43,791.30
2011,06,19,14,44,886.00
2011,06,19,14,45,820.80
2011,06,19,14,46,749.00
2011,06,19,14,47,809.70
2011,06,19,14,48,842.30
2011,06,19,14,49,829.80
2011,06,19,14,50,826.00
2011,06,19,14,51,774.60
2011,06,19,14,52,766.00
2011,06,19,14,53,766.00
2011,06,19,14,54,775.00
2011,06,19,14,55,860.00
2011,06,19,14,56,860.00
2011,06,19,14,57,860.00
2011,06,19,14,58,860.00
2011,06,19,14,59,860.00
2011,06,19,15,00,887.60
2011,06,19,15,01,928.40
2011,06,19,15,02,877.00
2011,06,19,15,03,838.60
2011,06,19,15,04,913.40
2011,06,19,15,05,937.00
2011,06,19,15,06,937.00
2011,06,19,15,07,951.50
2011,06,19,15,08,913.00
2011,06,19,15,09,961.20
2011,06,19,15,10,1013.00
2011,06,19,15,11,1013.00
2011,06,19,15,12,963.00
2011,06,19,15,13,838.00
2011,06,19,15,14,838.00
2011,06,19,15,15,813.50
2011,06,19,15,16,831.30
2011,06,19,15,17,889.00
2011,06,19,15,18,971.00
2011,06,19,15,19,1004.00
2011,06,19,15,20,787.90
2011,06,19,15,21,715.60
2011,06,19,15,22,721.10
2011,06,19,15,23,714.00
2011,06,19,15,24,722.30
2011,06,19,15,25,771.00
2011,06,19,15,26,747.80
2011,06,19,15,27,722.30
2011,06,19,15,28,708.00
2011,06,19,15,29,708.00
2011,06,19,15,30,692.30
2011,06,19,15,31,658.60
2011,06,19,15,32,658.00
2011,06,19,15,33,666.00
2011,06,19,15,34,763.50
2011,06,19,15,35,719.90
2011,06,19,15,36,740.40
2011,06,19,15,37,747.00
2011,06,19,15,38,674.00
2011,06,19,15,39,698.80
2011,06,19,15,40,719.50
2011,06,19,15,41,673.00
2011,06,19,15,42,659.40
2011,06,19,15,43,662.80
2011,06,19,15,44,647.10
2011,06,19,15,45,626.70
2011,06,19,15,46,591.70
2011,06,19,15,47,571.00
2011,06,19,15,48,556.90
2011,06,19,15,49,554.00
2011,06,19,15,50,554.00
2011,06,19,15,51,597.70
2011,06,19,15,52,605.00
2011,06,19,15,53,680.30
2011,06,19,15,54,604.10
2011,06,19,15,55,602.90
2011,06,19,15,56,638.80
2011,06,19,15,57,619.70
2011,06,19,15,58,636.20
2011,06,19,15,59,583.60
2011,06,19,16,00,544.50
2011,06,19,16,01,515.50
2011,06,19,16,02,525.80
2011,06,19,16,03,528.00
2011,06,19,16,04,551.70
2011,06,19,16,05,536.70
2011,06,19,16,06,517.20
2011,06,19,16,07,515.00
2011,06,19,16,08,513.30
2011,06,19,16,09,519.30
2011,06,19,16,10,513.30
2011,06,19,16,11,511.50
2011,06,19,16,12,525.00
2011,06,19,16,13,508.10
2011,06,19,16,14,496.00
2011,06,19,16,15,514.50
2011,06,19,16,16,515.90
2011,06,19,16,17,497.40
2011,06,19,16,18,486.50
2011,06,19,16,19,483.00
2011,06,19,16,20,479.00
2011,06,19,16,21,458.10
2011,06,19,16,22,439.80
2011,06,19,16,23,434.10
2011,06,19,16,24,436.40
2011,06,19,16,25,442.00
2011,06,19,16,26,461.40
2011,06,19,16,27,485.80
2011,06,19,16,28,488.70
2011,06,19,16,29,471.90
2011,06,19,16,30,458.10
2011,06,19,16,31,438.10
2011,06,19,16,32,416.00
2011,06,19,16,33,407.60
2011,06,19,16,34,436.50
2011,06,19,16,35,445.20
2011,06,19,16,36,461.40
2011,06,19,16,37,442.10
2011,06,19,16,38,419.40
2011,06,19,16,39,407.10
2011,06,19,16,40,399.00
2011,06,19,16,41,397.80
2011,06,19,16,42,393.40
2011,06,19,16,43,390.10
2011,06,19,16,44,381.00
2011,06,19,16,45,366.50
2011,06,19,16,46,360.00
2011,06,19,16,47,376.70
2011,06,19,16,48,381.00
2011,06,19,16,49,367.80
2011,06,19,16,50,362.40
2011,06,19,16,51,368.00
2011,06,19,16,52,396.30
2011,06,19,16,53,430.10
2011,06,19,16,54,449.00
2011,06,19,16,55,415.30
2011,06,19,16,56,395.70
2011,06,19,16,57,393.90
2011,06,19,16,58,368.40
2011,06,19,16,59,348.10
2011,06,19,17,00,334.00
2011,06,19,17,01,322.70
2011,06,19,17,02,320.50
2011,06,19,17,03,324.00
2011,06,19,17,04,318.50
2011,06,19,17,05,315.20
2011,06,19,17,06,311.50
2011,06,19,17,07,312.90
2011,06,19,17,08,313.00
2011,06,19,17,09,313.00
2011,06,19,17,10,312.60
2011,06,19,17,11,311.00
2011,06,19,17,12,311.00
2011,06,19,17,13,311.00
2011,06,19,17,14,311.90